Regional Weather Roundup
Issued by NWS

Home | Current Version | Previous Version | Graphics & Text | Print | Product List | Glossary Off
Versions: 1 2 3 4 5 6 7 8 9 10 11 12 13 14 15 16 17 18 19 20 21 22 23 24 25 26 27 28 29 30 31 32 33 34 35 36 37 38 39 40 41 42 43 44 45 46 47 48 49 50

000
ASUS43 KMKX 181811
RWRWI

WISCONSIN REGIONAL WEATHER ROUNDUP
NATIONAL WEATHER SERVICE MILWAUKEE/SULLIVAN WI
100 PM CDT FRI APR 18 2014

NOTE: "FAIR" INDICATES FEW OR NO CLOUDS BELOW 12,000 FEET WITH NO
SIGNIFICANT WEATHER AND/OR OBSTRUCTIONS TO VISIBILITY.

WIZ001-002-006>008-014>016-023>028-181900-
NORTHWEST WISCONSIN

CITY           SKY/WX    TMP DP  RH WIND       PRES   REMARKS
SUPERIOR ARPT  SUNNY     36  23  58 E9        30.42S WCI  29
6HR MIN TEMP:  18; 6HR MAX TEMP:  37;

ASHLAND        SUNNY     38  20  48 CALM      30.42F
6HR MIN TEMP:  21; 6HR MAX TEMP:  39;

HAYWARD        SUNNY     42  19  39 NE3       30.37F
6HR MIN TEMP:  17; 6HR MAX TEMP:  42;

SIREN          PTSUNNY   43  21  41 SE6       30.38S
6HR MIN TEMP:  19; 6HR MAX TEMP:  44;

RICE LAKE      MOSUNNY   41  23  49 CALM      30.39S
6HR MIN TEMP:  22; 6HR MAX TEMP:  41;

LADYSMITH      SUNNY     43  19  38 CALM      30.39S
6HR MIN TEMP:  21; 6HR MAX TEMP:  43;

EAU CLAIRE     PTSUNNY   46  25  43 NE8       30.37F
6HR MIN TEMP:  24; 6HR MAX TEMP:  46;

MENOMONIE      MOCLDY    46  27  48 E5        30.38F
6HR MIN TEMP:  27; 6HR MAX TEMP:  46;

NEW RICHMOND   MOSUNNY   46  27  49 SE6       30.37F
6HR MIN TEMP:  28; 6HR MAX TEMP:  46;

OSCEOLA        MOSUNNY   44  27  51 E6        30.41S
6HR MIN TEMP:  21; 6HR MAX TEMP:  44;

$$

WIZ003>005-009-010-017-018-181900-
NORTH CENTRAL WISCONSIN

CITY           SKY/WX    TMP DP  RH WIND       PRES   REMARKS
WOODRUFF       SUNNY     43  23  45 CALM      30.36F
6HR MIN TEMP:  19; 6HR MAX TEMP:  44;

RHINELANDER    SUNNY     37  21  52 N9        30.36F WCI  30
6HR MIN TEMP:  24; 6HR MAX TEMP:  37;

EAGLE RIVER    MOSUNNY   36  21  54 NW8       30.36S WCI  29
6HR MIN TEMP:  17; 6HR MAX TEMP:  36;

LAND O LAKES   MOSUNNY   36  22  56 N7        30.37S WCI  30
6HR MIN TEMP:  25; 6HR MAX TEMP:  37;

PHILLIPS       MOSUNNY   38  19  46 N5        30.36F WCI  34
TOMAHAWK       SUNNY     40  18  40 N9        30.36S WCI  34
6HR MIN TEMP:  21; 6HR MAX TEMP:  40;

MEDFORD        MOSUNNY   40  20  45 N7        30.36S
6HR MIN TEMP:  24; 6HR MAX TEMP:  40;

MERRILL        SUNNY     42  21  43 CALM      30.36S
6HR MIN TEMP:  24; 6HR MAX TEMP:  42;

$$

WIZ029-030-035-036-043>047-181900-
CENTRAL WISCONSIN

CITY           SKY/WX    TMP DP  RH WIND       PRES   REMARKS
WAUSAU         SUNNY     42  21  43 NW8       30.34F
6HR MIN TEMP:  27; 6HR MAX TEMP:  44; 6HR PCP: TRACE;

MOSINEE        SUNNY     43  25  49 N12G25    30.37S
MARSHFIELD     SUNNY     45  26  47 CALM      30.35F
6HR MIN TEMP:  29; 6HR MAX TEMP:  46;

STEVENS POINT  SUNNY     44  19  36 NW6       30.35F
6HR MIN TEMP:  26; 6HR MAX TEMP:  45;

WAUPACA        SUNNY     50  21  32 N6        30.36F
WAUTOMA        SUNNY     49  25  39 VRB5      30.36F
6HR MIN TEMP:  30; 6HR MAX TEMP:  49;

WISC RAPIDS    SUNNY     49  21  33 N10       30.37S
6HR MIN TEMP:  27; 6HR MAX TEMP:  49;

CAMP DOUGLAS   SUNNY     50  23  34 N6        30.36S
                                      6HR PCP: TRACE;

$$

WIZ011>013-019>022-031-037>040-048>050-181900-
NORTHEAST WISCONSIN

CITY           SKY/WX    TMP DP  RH WIND       PRES   REMARKS
ANTIGO         SUNNY     39  23  51 N7        30.35S WCI  34
6HR MIN TEMP:  25; 6HR MAX TEMP:  39;

STURGEON BAY   MOSUNNY   39  25  56 NW5       30.39S
6HR MIN TEMP:  34; 6HR MAX TEMP:  39;

GREEN BAY      NOT AVBL
MANITOWOC      MOSUNNY   43  28  55 W7        30.37F
6HR MIN TEMP:  36; 6HR MAX TEMP:  43; 6HR PCP: TRACE;

APPLETON       MOSUNNY   45  25  45 VRB5      30.36F
CLINTONVILLE   SUNNY     45  23  42 NW9       30.35F
OSHKOSH        SUNNY     43  28  55 E9        30.36F
6HR MIN TEMP:  35; 6HR MAX TEMP:  44;

$$

WIZ032>034-041-042-053>061-181900-
SOUTHWEST WISCONSIN

CITY           SKY/WX    TMP DP  RH WIND       PRES   REMARKS
LA CROSSE      MOSUNNY   50  27  40 W10       30.36F
6HR MIN TEMP:  29; 6HR MAX TEMP:  50;

SPARTA         MOSUNNY   49  21  32 CALM      30.36F
6HR MIN TEMP:  23; 6HR MAX TEMP:  50;

VIROQUA        FAIR      47  27  44 NW3       30.34F
6HR MIN TEMP:  29; 6HR MAX TEMP:  47;

BOSCOBEL       SUNNY     52  22  30 NE7       30.35F
6HR MIN TEMP:  26; 6HR MAX TEMP:  52;

PRAIRIE DU CHI SUNNY     51  27  39 S5        30.34F
6HR MIN TEMP:  28; 6HR MAX TEMP:  51;

PLATTEVILLE    FAIR      49  29  46 CALM      30.35F
6HR MIN TEMP:  32; 6HR MAX TEMP:  50;

$$

WIZ056-057-062-063-064-067-068-181900-
SOUTH CENTRAL WISCONSIN

CITY           SKY/WX    TMP DP  RH WIND       PRES   REMARKS
BARABOO/DELLS  SUNNY     47  24  40 CALM      30.35S
6HR MIN TEMP:  32; 6HR MAX TEMP:  47;

LONE ROCK      SUNNY     49  29  46 CALM      30.35F
6HR MIN TEMP:  29; 6HR MAX TEMP:  49;

WATERTOWN      SUNNY     47  32  56 N6        30.35S
6HR MIN TEMP:  33; 6HR MAX TEMP:  47;

MADISON        MOSUNNY   49  28  44 E7        30.36F
6HR MIN TEMP:  30; 6HR MAX TEMP:  50;

MIDDLETON      FAIR      49  27  42 E5        30.36S
6HR MIN TEMP:  30; 6HR MAX TEMP:  50;

MONROE         SUNNY     51  32  47 NE3       30.33F
6HR MIN TEMP:  33; 6HR MAX TEMP:  51;

JANESVILLE     SUNNY     54  27  35 CALM      30.35S
$$

WIZ051-052-058>065-066-070>072-181900-
SOUTHEAST WISCONSIN

CITY           SKY/WX    TMP DP  RH WIND       PRES   REMARKS
MILWAUKEE      MOSUNNY   42  30  62 NE13      30.38S
6HR MIN TEMP:  38; 6HR MAX TEMP:  44;

WAUKESHA       MOSUNNY   45  32  61 CALM      30.36S
MILWAUKEE/TIMM MOSUNNY   45  28  53 E7        30.36F
RACINE         SUNNY     43  30  60 NE12      30.38F
6HR MIN TEMP:  38; 6HR MAX TEMP:  44;

BURLINGTON     SUNNY     51  33  51 E5        30.34S
6HR MIN TEMP:  33; 6HR MAX TEMP:  51;

KENOSHA        MOSUNNY   47  33  58 E12       30.36F
6HR MIN TEMP:  36; 6HR MAX TEMP:  49;

FOND DU LAC    SUNNY     44  30  57 NE7       30.37F
6HR MIN TEMP:  32; 6HR MAX TEMP:  44;

SHEBOYGAN      MOSUNNY   44  33  65 NE8       30.36F
6HR MIN TEMP:  36; 6HR MAX TEMP:  45;

WEST BEND      SUNNY     45  28  53 W7        30.36S
JUNEAU         SUNNY     45  26  47 N3        30.37S
6HR MIN TEMP:  32; 6HR MAX TEMP:  46;

$$

LSZ147-162-181900-
LAKE SUPERIOR

STATION/POSITION TIME  TEMP    WIND        PRES    WAVE
                       AIR SEA DIR/SP/G            HT/PER
                 (UTC) (F)     (DEG/KT/KT) (MB)    (FT/S)
DEVILS ISLAND    1800   33      CALM  / 97 1031.6F
PORT WING        1740   32      20/ 10/ 11 1030.1F
SAXON HARBOR     1740             CALM     1030.5F
$$

LMZ867-665-643>646-181900-
LAKE MICHIGAN

STATION/POSITION TIME  TEMP    WIND        PRES    WAVE
                       AIR SEA DIR/SP/G            HT/PER
                 (UTC) (F)     (DEG/KT/KT) (MB)    (FT/S)
NORTHPORT PIER   1700   36     320/  6/  8 1028.8R
SISTER BAY       1723          270/  5/  5   N/A
KEWAUNEE LAKESHO 1700   39     340/  8/ 10 1029.3S
SHEBOYGAN LAKESH 1800   36      60/ 12/ 13 1029.3F
PORT WASHINGTON  1700   38      60/  8/ 12 1029.1
MILWAUKEE LAKESH 1700   36      40/ 13/ 14   N/A
KENOSHA   LAKESH 1800   37      40/ 13/ 16   N/A
$$

TC  - TEMPERATURE IN CELSIUS
VSB - VISIBILITY IN STATUTE MILES
WCI - WIND CHILL INDEX
HX  - HEAT INDEX




USA.gov is the U.S. government's official web portal to all federal, state and local government web resources and services.